Find Starlink 32099

NORAD ID: 59697 Int'l Des: 2024-086 Owner: SPXS Country: US Constellation: starlink operational
LEOCIRCULAR

リアルタイム位置

3D地球を読み込み中...

Starlink 32099について

説明を読み込み中...

次回通過

Passes for default location (London). Set your location on the main map for personalized predictions.

高度履歴

Loading altitude history...

軌道要素

1 59697U 24086R 26125.96138534 .00016342 00000-0 60079-3 0 9992
2 59697 43.0076 96.2462 0001838 259.2194 100.8451 15.27649380112872
Epoch: May 5, 2026 • Age: 5 hours

現在のステータス

高度 484.8 km
速度 7.63 km/s
衛星直下点 31.76°N, 147.64°W
打ち上げ日 May 8, 2024
運用期間 1.9 years
タイプ internet

技術仕様

分類 Payload
質量 730.00 kg
乾燥質量 700.00 kg
総質量 730.00 kg
長さ 0.30 m
直径 4.10 m
スパン 29.00 m
形状 Box + pan
製造者 SPXS
バスタイプ Starlink V2M
フェーズステータス In Orbit
所有者/国 SPXS/US

Most Searched